Location: Moscow
(55.7500°N, 37.5830°E)
Time: 05:00:44
(UTC+03:00)

Vanguard 1 - Pass Details

Date: 08 December 2021
Orbit: 652 x 3830 km, 34.2° (Epoch: 21 January)

Event Time Altitude Azimuth Distance (km) Brightness Sun altitude
Rises 20:06:02 0° 165° (SSE) 6,581 14.1 -33.2°
Enters shadow 20:10:10 - 153° (SSE) 6,389 13.9 -33.8°
Reaches altitude 10° 20:16:26 10° 135° (SE) 6,357 - -34.7°
Maximum altitude 20:20:42 11° 123° (ESE) 6,500 - -35.3°
Drops below altitude 10° 20:25:11 10° 111° (ESE) 6,769 - -35.9°
Sets 20:37:50 0° 84° (E) 7,968 - -37.6°
